| time (UTC) | temp F | wind direction | speed MPH | gust MPH | rain 1hr in | rain 24hr in | rain mn in | humidity % | barometer mb |
| 20260902035010 | 69 | 284 | 0.0 | 3.0 | 0.00 | 0.02 | 0.00 | 58 | 1018.5 |
| 20260902034508 | 69 | 284 | 1.0 | 3.0 | 0.00 | 0.03 | 0.00 | 57 | 1018.4 |
| 20260902034007 | 69 | 281 | 0.0 | 1.0 | 0.00 | 0.03 | 0.00 | 54 | 1018.5 |
| 20260902033512 | 70 | 281 | 0.0 | 2.0 | 0.00 | 0.03 | 0.00 | 55 | 1018.5 |
| 20260902033012 | 70 | 280 | 0.0 | 2.0 | 0.00 | 0.03 | 0.00 | 52 | 1018.4 |
| 20260902032512 | 70 | 280 | 0.0 | 0.0 | 0.00 | 0.03 | 0.00 | 53 | 1018.4 |
| 20260902032016 | 71 | 280 | 0.0 | 0.0 | 0.00 | 0.03 | 0.00 | 53 | 1018.4 |
| 20260902031518 | 71 | 270 | 0.0 | 0.0 | 0.00 | 0.03 | 0.00 | 51 | 1018.4 |
| 20260902031011 | 71 | 270 | 0.0 | 2.0 | 0.00 | 0.03 | 0.00 | 51 | 1018.5 |
| 20260902030514 | 72 | 270 | 0.0 | 2.0 | 0.00 | 0.03 | 0.00 | 51 | 1018.3 |
| 20260902030028 | 72 | 270 | 0.0 | 2.0 | 0.00 | 0.03 | 0.00 | 50 | 1018.4 |
| 20260902025519 | 72 | 279 | 0.0 | 2.0 | 0.00 | 0.03 | 0.00 | 50 | 1018.3 |
| 20260902025005 | 73 | 279 | 0.0 | 2.0 | 0.00 | 0.03 | 0.00 | 50 | 1018.2 |
| 20260902024507 | 73 | 279 | 0.0 | 0.0 | 0.00 | 0.03 | 0.00 | 49 | 1018.1 |
| 20260902024006 | 73 | 279 | 0.0 | 0.0 | 0.00 | 0.03 | 0.00 | 49 | 1018.0 |
| 20260902023506 | 74 | 279 | 0.0 | 0.0 | 0.00 | 0.03 | 0.00 | 48 | 1017.9 |
| 20260902023027 | 74 | 282 | 0.0 | 0.0 | 0.00 | 0.03 | 0.00 | 47 | 1017.8 |
| 20260902022507 | 75 | 270 | 0.0 | 0.0 | 0.00 | 0.03 | 0.00 | 46 | 1017.8 |
| 20260902022012 | 75 | 270 | 0.0 | 0.0 | 0.00 | 0.03 | 0.00 | 44 | 1017.7 |
| 20260902021527 | 75 | 286 | 0.0 | 1.0 | 0.00 | 0.03 | 0.00 | 44 | 1017.7 |
| 20260902021016 | 76 | 270 | 0.0 | 2.0 | 0.00 | 0.03 | 0.00 | 44 | 1017.6 |
| 20260902020514 | 77 | 279 | 0.0 | 2.0 | 0.00 | 0.03 | 0.00 | 43 | 1017.5 |
| 20260902020022 | 77 | 329 | 0.0 | 2.0 | 0.00 | 0.03 | 0.00 | 43 | 1017.4 |
| 20260902015513 | 77 | 25 | 0.0 | 2.0 | 0.00 | 0.03 | 0.00 | 42 | 1017.4 |
| 20260902015013 | 78 | 73 | 0.0 | 0.0 | 0.00 | 0.03 | 0.00 | 42 | 1017.4 |
| 20260902014529 | 78 | 74 | 0.0 | 1.0 | 0.00 | 0.03 | 0.00 | 41 | 1017.4 |
| 20260902014014 | 78 | 73 | 0.0 | 1.0 | 0.00 | 0.03 | 0.00 | 40 | 1017.3 |
| 20260902013510 | 78 | 74 | 0.0 | 2.0 | 0.00 | 0.03 | 0.00 | 40 | 1017.3 |
| 20260902013007 | 78 | 74 | 0.0 | 5.0 | 0.00 | 0.03 | 0.00 | 39 | 1017.3 |
| 20260902012508 | 79 | 77 | 1.0 | 5.0 | 0.00 | 0.03 | 0.00 | 39 | 1017.3 |
| 20260902012008 | 79 | 30 | 1.0 | 5.0 | 0.00 | 0.03 | 0.00 | 39 | 1017.2 |
| 20260902011513 | 79 | 29 | 1.0 | 5.0 | 0.00 | 0.03 | 0.00 | 39 | 1017.2 |
| 20260902011012 | 80 | 53 | 2.0 | 5.0 | 0.00 | 0.03 | 0.00 | 38 | 1017.2 |
| 20260902010512 | 80 | 51 | 1.0 | 4.0 | 0.00 | 0.03 | 0.00 | 37 | 1017.1 |
| 20260902010019 | 81 | 70 | 1.0 | 3.0 | 0.00 | 0.03 | 0.00 | 37 | 1017.1 |
| 20260902005515 | 81 | 242 | 1.0 | 3.0 | 0.00 | 0.03 | 0.00 | 36 | 1017.1 |
| 20260902005017 | 81 | 206 | 0.0 | 5.0 | 0.00 | 0.03 | 0.00 | 37 | 1017.2 |
| 20260902004525 | 82 | 63 | 1.0 | 5.0 | 0.00 | 0.03 | 0.00 | 37 | 1017.2 |
| 20260902004015 | 82 | 69 | 2.0 | 5.0 | 0.00 | 0.03 | 0.00 | 36 | 1017.2 |
| 20260902003516 | 83 | 28 | 1.0 | 3.0 | 0.00 | 0.03 | 0.00 | 33 | 1017.2 |
| 20260902003033 | 83 | 66 | 0.0 | 4.0 | 0.00 | 0.03 | 0.00 | 32 | 1017.3 |
| 20260902002505 | 84 | 69 | 1.0 | 4.0 | 0.00 | 0.03 | 0.00 | 34 | 1017.3 |
| 20260902002006 | 84 | 49 | 1.0 | 4.0 | 0.00 | 0.03 | 0.00 | 33 | 1017.3 |
| 20260902001510 | 84 | 89 | 1.0 | 6.0 | 0.00 | 0.03 | 0.00 | 32 | 1017.3 |
| 20260902001009 | 84 | 13 | 1.0 | 6.0 | 0.00 | 0.03 | 0.00 | 33 | 1017.3 |
| 20260902000508 | 85 | 93 | 1.0 | 6.0 | 0.00 | 0.03 | 0.00 | 32 | 1017.3 |
| 20260902000016 | 85 | 356 | 0.0 | 3.0 | 0.00 | 0.03 | 0.00 | 32 | 1017.3 |
| 20260901235510 | 85 | 8 | 0.0 | 4.0 | 0.00 | 0.03 | 0.00 | 30 | 1017.3 |
| 20260901235011 | 85 | 212 | 1.0 | 4.0 | 0.00 | 0.03 | 0.00 | 32 | 1017.3 |
| 20260901234526 | 85 | 314 | 1.0 | 6.0 | 0.00 | 0.03 | 0.00 | 31 | 1017.3 |
| 20260901234018 | 84 | 179 | 1.0 | 6.0 | 0.00 | 0.03 | 0.00 | 32 | 1017.3 |
| 20260901233514 | 84 | 57 | 1.0 | 5.0 | 0.00 | 0.03 | 0.00 | 31 | 1017.2 |
| 20260901233027 | 85 | 56 | 2.0 | 9.0 | 0.00 | 0.03 | 0.00 | 30 | 1017.3 |
| 20260901232514 | 85 | 129 | 1.0 | 9.0 | 0.00 | 0.03 | 0.00 | 31 | 1017.2 |
| 20260901232020 | 85 | 359 | 1.0 | 6.0 | 0.00 | 0.03 | 0.00 | 29 | 1017.3 |
| 20260901231534 | 85 | 58 | 1.0 | 4.0 | 0.00 | 0.03 | 0.00 | 32 | 1017.3 |
| 20260901231005 | 85 | 78 | 0.0 | 4.0 | 0.00 | 0.03 | 0.00 | 28 | 1017.3 |
| 20260901230506 | 85 | 84 | 0.0 | 2.0 | 0.00 | 0.03 | 0.00 | 30 | 1017.3 |
| 20260901230013 | 85 | 84 | 0.0 | 6.0 | 0.00 | 0.03 | 0.00 | 32 | 1017.3 |
| 20260901225513 | 85 | 25 | 0.0 | 8.0 | 0.00 | 0.03 | 0.00 | 30 | 1017.3 |
| 20260901225012 | 85 | 48 | 3.0 | 8.0 | 0.00 | 0.03 | 0.00 | 31 | 1017.3 |
| 20260901224520 | 86 | 57 | 0.0 | 5.0 | 0.00 | 0.03 | 0.00 | 29 | 1017.3 |
| 20260901224016 | 86 | 55 | 1.0 | 3.0 | 0.00 | 0.03 | 0.00 | 30 | 1017.3 |
| 20260901223513 | 87 | 346 | 0.0 | 7.0 | 0.00 | 0.03 | 0.00 | 30 | 1017.2 |
| 20260901223029 | 87 | 50 | 2.0 | 8.0 | 0.00 | 0.03 | 0.00 | 28 | 1017.2 |
| 20260901222516 | 87 | 66 | 1.0 | 8.0 | 0.00 | 0.03 | 0.00 | 28 | 1017.2 |
| 20260901222016 | 88 | 242 | 1.0 | 9.0 | 0.00 | 0.03 | 0.00 | 27 | 1017.2 |
| 20260901221534 | 89 | 46 | 4.0 | 9.0 | 0.00 | 0.03 | 0.00 | 27 | 1017.2 |
| 20260901221016 | 90 | 57 | 2.0 | 8.0 | 0.00 | 0.03 | 0.00 | 26 | 1017.3 |
| 20260901220518 | 90 | 225 | 0.0 | 7.0 | 0.00 | 0.03 | 0.00 | 25 | 1017.3 |
| 20260901220018 | 90 | 275 | 3.0 | 8.0 | 0.00 | 0.03 | 0.00 | 25 | 1017.2 |
| 20260901215507 | 90 | 334 | 4.0 | 8.0 | 0.00 | 0.03 | 0.00 | 24 | 1017.2 |
| 20260901215011 | 90 | 325 | 0.0 | 5.0 | 0.00 | 0.03 | 0.00 | 24 | 1017.2 |
| 20260901214517 | 90 | 249 | 1.0 | 5.0 | 0.00 | 0.03 | 0.00 | 26 | 1017.3 |
| 20260901214013 | 89 | 312 | 1.0 | 6.0 | 0.00 | 0.03 | 0.00 | 25 | 1017.3 |
| 20260901213512 | 89 | 96 | 1.0 | 6.0 | 0.00 | 0.03 | 0.00 | 25 | 1017.3 |
| 20260901213057 | 89 | 65 | 1.0 | 8.0 | 0.00 | 0.03 | 0.00 | 27 | 1017.4 |
| 20260901212514 | 89 | 245 | 3.0 | 13.0 | 0.00 | 0.03 | 0.00 | 27 | 1017.5 |
| 20260901212014 | 88 | 12 | 3.0 | 13.0 | 0.00 | 0.03 | 0.00 | 26 | 1017.6 |
| 20260901211529 | 88 | 45 | 6.0 | 11.0 | 0.00 | 0.03 | 0.00 | 27 | 1017.8 |
| 20260901211019 | 88 | 30 | 2.0 | 5.0 | 0.00 | 0.03 | 0.00 | 27 | 1017.8 |
| 20260901210515 | 88 | 69 | 2.0 | 5.0 | 0.00 | 0.03 | 0.00 | 27 | 1017.9 |
| 20260901210033 | 87 | 65 | 2.0 | 6.0 | 0.00 | 0.03 | 0.00 | 27 | 1018.1 |
| 20260901205518 | 86 | 77 | 2.0 | 6.0 | 0.00 | 0.03 | 0.00 | 28 | 1018.2 |
| 20260901205019 | 85 | 347 | 2.0 | 5.0 | 0.00 | 0.03 | 0.00 | 28 | 1018.2 |
| 20260901204512 | 84 | 306 | 0.0 | 5.0 | 0.00 | 0.03 | 0.00 | 31 | 1018.4 |
| 20260901204008 | 83 | 355 | 1.0 | 7.0 | 0.00 | 0.03 | 0.00 | 32 | 1018.4 |
| 20260901203510 | 82 | 308 | 1.0 | 9.0 | 0.00 | 0.03 | 0.00 | 33 | 1018.5 |
| 20260901203042 | 83 | 281 | 2.0 | 13.0 | 0.00 | 0.03 | 0.00 | 32 | 1018.7 |
| 20260901202511 | 83 | 287 | 7.0 | 16.0 | 0.00 | 0.03 | 0.00 | 31 | 1018.9 |
| 20260901202017 | 83 | 314 | 7.0 | 19.0 | 0.00 | 0.03 | 0.00 | 31 | 1018.9 |
| 20260901201525 | 85 | 283 | 10.0 | 19.0 | 0.00 | 0.03 | 0.00 | 28 | 1018.7 |
| 20260901201019 | 86 | 293 | 1.0 | 5.0 | 0.00 | 0.03 | 0.00 | 33 | 1018.6 |
| 20260901200516 | 86 | 323 | 0.0 | 2.0 | 0.00 | 0.03 | 0.00 | 34 | 1018.5 |
| 20260901200033 | 86 | 50 | 0.0 | 6.0 | 0.00 | 0.03 | 0.00 | 33 | 1018.4 |
| 20260901195514 | 86 | 50 | 1.0 | 6.0 | 0.00 | 0.03 | 0.00 | 34 | 1018.3 |
| 20260901195020 | 86 | 72 | 0.0 | 6.0 | 0.00 | 0.03 | 0.00 | 34 | 1018.4 |
| 20260901194542 | 86 | 63 | 2.0 | 6.0 | 0.00 | 0.03 | 0.00 | 35 | 1018.3 |
| 20260901194020 | 86 | 179 | 2.0 | 5.0 | 0.00 | 0.03 | 0.00 | 33 | 1018.4 |
| 20260901193508 | 86 | 200 | 0.0 | 10.0 | 0.00 | 0.03 | 0.00 | 35 | 1018.3 |
| 20260901193018 | 86 | 329 | 1.0 | 11.0 | 0.00 | 0.03 | 0.00 | 35 | 1018.3 |
| 20260901192512 | 87 | 214 | 5.0 | 11.0 | 0.00 | 0.03 | 0.00 | 34 | 1018.4 |
| 20260901192013 | 87 | 314 | 4.0 | 10.0 | 0.00 | 0.03 | 0.00 | 35 | 1018.4 |
| 20260901191525 | 86 | 82 | 5.0 | 9.0 | 0.00 | 0.03 | 0.00 | 35 | 1018.4 |
| 20260901191017 | 86 | 63 | 1.0 | 9.0 | 0.00 | 0.03 | 0.00 | 35 | 1018.5 |
| 20260901190514 | 86 | 47 | 1.0 | 9.0 | 0.00 | 0.03 | 0.00 | 37 | 1018.5 |
| 20260901190029 | 85 | 67 | 4.0 | 10.0 | 0.00 | 0.03 | 0.00 | 37 | 1018.5 |
| 20260901185517 | 85 | 75 | 3.0 | 10.0 | 0.00 | 0.03 | 0.00 | 38 | 1018.6 |
| 20260901185006 | 84 | 68 | 3.0 | 10.0 | 0.00 | 0.03 | 0.00 | 39 | 1018.6 |
| 20260901184519 | 84 | 54 | 4.0 | 11.0 | 0.00 | 0.03 | 0.00 | 39 | 1018.7 |
| 20260901184008 | 84 | 81 | 6.0 | 11.0 | 0.00 | 0.03 | 0.00 | 37 | 1018.7 |
| 20260901183509 | 84 | 351 | 5.0 | 11.0 | 0.00 | 0.03 | 0.00 | 39 | 1018.9 |
| 20260901183014 | 84 | 67 | 4.0 | 11.0 | 0.00 | 0.03 | 0.00 | 39 | 1019.0 |
| 20260901182508 | 84 | 73 | 4.0 | 11.0 | 0.00 | 0.03 | 0.00 | 42 | 1019.1 |
| 20260901182010 | 85 | 73 | 5.0 | 10.0 | 0.00 | 0.03 | 0.00 | 41 | 1019.1 |
| 20260901181523 | 85 | 63 | 3.0 | 8.0 | 0.00 | 0.03 | 0.00 | 42 | 1019.2 |
| 20260901181012 | 85 | 139 | 1.0 | 9.0 | 0.00 | 0.03 | 0.00 | 42 | 1019.2 |
| 20260901180516 | 85 | 85 | 3.0 | 9.0 | 0.00 | 0.03 | 0.00 | 42 | 1019.2 |
| 20260901180025 | 85 | 233 | 3.0 | 9.0 | 0.00 | 0.03 | 0.00 | 41 | 1019.5 |
| 20260901175516 | 85 | 205 | 2.0 | 8.0 | 0.00 | 0.03 | 0.00 | 40 | 1019.7 |
| 20260901175016 | 84 | 227 | 1.0 | 8.0 | 0.00 | 0.03 | 0.00 | 39 | 1019.7 |
| 20260901174529 | 84 | 180 | 2.0 | 8.0 | 0.00 | 0.03 | 0.00 | 38 | 1019.7 |
| 20260901174018 | 84 | 108 | 2.0 | 8.0 | 0.00 | 0.03 | 0.00 | 40 | 1019.5 |
| 20260901173508 | 83 | 247 | 3.0 | 8.0 | 0.00 | 0.03 | 0.00 | 40 | 1019.7 |
| 20260901173012 | 83 | 230 | 3.0 | 8.0 | 0.00 | 0.03 | 0.00 | 42 | 1019.6 |
| 20260901172508 | 83 | 287 | 1.0 | 6.0 | 0.00 | 0.03 | 0.00 | 40 | 1019.7 |
| 20260901172010 | 82 | 135 | 2.0 | 7.0 | 0.00 | 0.03 | 0.00 | 43 | 1019.7 |
| 20260901171517 | 81 | 52 | 2.0 | 7.0 | 0.00 | 0.03 | 0.00 | 44 | 1019.8 |
| 20260901171014 | 81 | 219 | 2.0 | 7.0 | 0.00 | 0.03 | 0.00 | 50 | 1019.9 |
| 20260901170512 | 81 | 157 | 2.0 | 5.0 | 0.00 | 0.03 | 0.00 | 51 | 1020.0 |
| 20260901170027 | 80 | 117 | 2.0 | 6.0 | 0.00 | 0.03 | 0.00 | 49 | 1019.9 |
| 20260901165514 | 80 | 216 | 2.0 | 6.0 | 0.00 | 0.03 | 0.00 | 52 | 1019.9 |
| 20260901165015 | 79 | 195 | 1.0 | 4.0 | 0.00 | 0.03 | 0.00 | 50 | 1020.0 |
| 20260901164528 | 79 | 146 | 1.0 | 5.0 | 0.00 | 0.03 | 0.00 | 51 | 1020.0 |
| 20260901164017 | 78 | 289 | 0.0 | 5.0 | 0.00 | 0.03 | 0.00 | 52 | 1020.0 |
| 20260901163517 | 78 | 216 | 2.0 | 5.0 | 0.00 | 0.03 | 0.00 | 50 | 1020.0 |
| 20260901163033 | 77 | 177 | 1.0 | 4.0 | 0.00 | 0.03 | 0.00 | 53 | 1019.9 |
| 20260901162507 | 77 | 129 | 0.0 | 4.0 | 0.00 | 0.03 | 0.00 | 55 | 1019.9 |
| 20260901162008 | 76 | 286 | 0.0 | 4.0 | 0.00 | 0.03 | 0.00 | 55 | 1019.9 |
| 20260901161514 | 75 | 131 | 0.0 | 3.0 | 0.00 | 0.03 | 0.00 | 56 | 1020.0 |
| 20260901161010 | 74 | 68 | 1.0 | 3.0 | 0.00 | 0.03 | 0.00 | 59 | 1020.0 |
| 20260901160513 | 73 | 285 | 0.0 | 2.0 | 0.00 | 0.03 | 0.00 | 60 | 1020.2 |
| 20260901160025 | 71 | 296 | 0.0 | 0.0 | 0.00 | 0.03 | 0.00 | 68 | 1020.2 |
| 20260901155513 | 70 | 287 | 0.0 | 0.0 | 0.00 | 0.03 | 0.00 | 68 | 1020.2 |
| 20260901155013 | 69 | 289 | 0.0 | 0.0 | 0.00 | 0.03 | 0.00 | 68 | 1020.4 |
| 20260901154527 | 68 | 287 | 0.0 | 0.0 | 0.00 | 0.03 | 0.00 | 69 | 1020.4 |
| 20260901154012 | 68 | 287 | 0.0 | 0.0 | 0.00 | 0.03 | 0.00 | 70 | 1020.4 |
| 20260901153516 | 68 | 287 | 0.0 | 0.0 | 0.00 | 0.03 | 0.00 | 71 | 1020.3 |
| 20260901153034 | 67 | 287 | 0.0 | 0.0 | 0.00 | 0.03 | 0.00 | 71 | 1020.4 |
| 20260901152518 | 67 | 287 | 0.0 | 0.0 | 0.00 | 0.03 | 0.00 | 74 | 1020.4 |
| 20260901152017 | 67 | 287 | 0.0 | 0.0 | 0.00 | 0.03 | 0.00 | 73 | 1020.4 |
| 20260901151530 | 66 | 287 | 0.0 | 0.0 | 0.00 | 0.03 | 0.00 | 74 | 1020.4 |
| 20260901151008 | 66 | 287 | 0.0 | 0.0 | 0.00 | 0.03 | 0.00 | 75 | 1020.5 |
| 20260901150509 | 66 | 270 | 0.0 | 0.0 | 0.00 | 0.03 | 0.00 | 74 | 1020.5 |
| 20260901150014 | 65 | 270 | 0.0 | 0.0 | 0.00 | 0.03 | 0.00 | 77 | 1020.4 |
| 20260901145512 | 65 | 270 | 0.0 | 0.0 | 0.00 | 0.03 | 0.00 | 77 | 1020.4 |
| 20260901145012 | 65 | 270 | 0.0 | 0.0 | 0.00 | 0.03 | 0.00 | 77 | 1020.4 |
| 20260901144524 | 65 | 288 | 0.0 | 0.0 | 0.00 | 0.03 | 0.00 | 78 | 1020.4 |
| 20260901144015 | 64 | 287 | 0.0 | 0.0 | 0.00 | 0.03 | 0.00 | 79 | 1020.4 |
| 20260901143516 | 64 | 287 | 0.0 | 0.0 | 0.00 | 0.03 | 0.00 | 80 | 1020.4 |
| 20260901143039 | 64 | 288 | 0.0 | 0.0 | 0.00 | 0.03 | 0.00 | 80 | 1020.4 |
| 20260901142516 | 64 | 287 | 0.0 | 0.0 | 0.00 | 0.03 | 0.00 | 80 | 1020.4 |
| 20260901142017 | 64 | 287 | 0.0 | 0.0 | 0.00 | 0.03 | 0.00 | 81 | 1020.4 |
| 20260901141529 | 63 | 287 | 0.0 | 0.0 | 0.00 | 0.03 | 0.00 | 80 | 1020.4 |
| 20260901141021 | 63 | 287 | 0.0 | 0.0 | 0.00 | 0.03 | 0.00 | 81 | 1020.4 |
| 20260901140516 | 63 | 287 | 0.0 | 0.0 | 0.00 | 0.03 | 0.00 | 81 | 1020.4 |
| 20260901140042 | 63 | 287 | 0.0 | 0.0 | 0.00 | 0.03 | 0.00 | 81 | 1020.3 |
| 20260901135508 | 62 | 287 | 0.0 | 0.0 | 0.00 | 0.03 | 0.00 | 80 | 1020.3 |
| 20260901135013 | 62 | 287 | 0.0 | 0.0 | 0.00 | 0.03 | 0.00 | 81 | 1020.2 |
| 20260901134523 | 62 | 287 | 0.0 | 0.0 | 0.00 | 0.03 | 0.00 | 81 | 1020.2 |
| 20260901134019 | 62 | 287 | 0.0 | 0.0 | 0.00 | 0.03 | 0.00 | 81 | 1020.3 |
| 20260901133511 | 62 | 287 | 0.0 | 0.0 | 0.00 | 0.03 | 0.00 | 80 | 1020.2 |
| 20260901133028 | 62 | 287 | 0.0 | 0.0 | 0.00 | 0.03 | 0.00 | 80 | 1020.2 |
| 20260901132514 | 61 | 287 | 0.0 | 2.0 | 0.00 | 0.03 | 0.00 | 80 | 1020.0 |
| 20260901132015 | 61 | 287 | 0.0 | 2.0 | 0.00 | 0.03 | 0.00 | 80 | 1020.0 |
| 20260901131536 | 61 | 280 | 0.0 | 0.0 | 0.00 | 0.03 | 0.00 | 79 | 1019.9 |
| 20260901131023 | 61 | 280 | 0.0 | 0.0 | 0.00 | 0.03 | 0.00 | 79 | 1019.6 |
| 20260901130515 | 61 | 280 | 0.0 | 0.0 | 0.00 | 0.03 | 0.00 | 79 | 1019.4 |
| 20260901130039 | 61 | 280 | 0.0 | 0.0 | 0.00 | 0.03 | 0.00 | 79 | 1019.5 |
| 20260901125519 | 61 | 280 | 0.0 | 0.0 | 0.00 | 0.03 | 0.00 | 79 | 1019.6 |
| 20260901125019 | 61 | 280 | 0.0 | 0.0 | 0.00 | 0.03 | 0.00 | 79 | 1019.5 |
| 20260901124515 | 61 | 280 | 0.0 | 0.0 | 0.00 | 0.03 | 0.00 | 79 | 1019.4 |
| 20260901124010 | 61 | 280 | 0.0 | 0.0 | 0.00 | 0.03 | 0.00 | 80 | 1019.3 |
| 20260901123515 | 61 | 284 | 0.0 | 0.0 | 0.00 | 0.03 | 0.00 | 80 | 1019.2 |
| 20260901123025 | 61 | 281 | 0.0 | 2.0 | 0.00 | 0.03 | 0.00 | 80 | 1019.2 |
| 20260901122514 | 61 | 279 | 0.0 | 2.0 | 0.00 | 0.03 | 0.00 | 79 | 1019.3 |
| 20260901122015 | 61 | 280 | 0.0 | 2.0 | 0.00 | 0.03 | 0.00 | 80 | 1019.2 |
| 20260901121525 | 61 | 281 | 0.0 | 2.0 | 0.00 | 0.03 | 0.00 | 80 | 1019.2 |
| 20260901121018 | 61 | 270 | 0.0 | 1.0 | 0.00 | 0.03 | 0.00 | 81 | 1019.2 |
| 20260901120518 | 61 | 270 | 0.0 | 1.0 | 0.00 | 0.03 | 0.00 | 81 | 1019.2 |
| 20260901120048 | 61 | 270 | 0.0 | 0.0 | 0.00 | 0.03 | 0.00 | 81 | 1019.1 |
| 20260901115520 | 61 | 270 | 0.0 | 1.0 | 0.00 | 0.03 | 0.00 | 81 | 1019.1 |
| 20260901115023 | 61 | 287 | 0.0 | 2.0 | 0.00 | 0.03 | 0.00 | 80 | 1019.1 |
| 20260901114534 | 61 | 287 | 0.0 | 2.0 | 0.00 | 0.03 | 0.00 | 79 | 1019.2 |
| 20260901114020 | 62 | 289 | 0.0 | 0.0 | 0.00 | 0.03 | 0.00 | 80 | 1019.2 |
| 20260901113518 | 62 | 288 | 0.0 | 0.0 | 0.00 | 0.03 | 0.00 | 80 | 1019.2 |
| 20260901113018 | 62 | 287 | 0.0 | 0.0 | 0.00 | 0.03 | 0.00 | 80 | 1019.2 |
| 20260901112511 | 62 | 287 | 0.0 | 0.0 | 0.00 | 0.03 | 0.00 | 79 | 1019.1 |
| 20260901112011 | 62 | 287 | 0.0 | 0.0 | 0.00 | 0.03 | 0.00 | 78 | 1019.2 |
| 20260901111525 | 62 | 287 | 0.0 | 0.0 | 0.00 | 0.03 | 0.00 | 78 | 1019.2 |
| 20260901111017 | 62 | 287 | 0.0 | 0.0 | 0.00 | 0.03 | 0.00 | 78 | 1019.2 |
| 20260901110517 | 62 | 287 | 0.0 | 0.0 | 0.00 | 0.03 | 0.00 | 78 | 1019.2 |
| 20260901110039 | 62 | 288 | 0.0 | 0.0 | 0.00 | 0.03 | 0.00 | 80 | 1019.3 |
| 20260901105518 | 62 | 288 | 0.0 | 0.0 | 0.00 | 0.03 | 0.00 | 80 | 1019.4 |
| 20260901105022 | 62 | 288 | 0.0 | 0.0 | 0.00 | 0.03 | 0.00 | 80 | 1019.4 |
| 20260901104531 | 62 | 288 | 0.0 | 0.0 | 0.00 | 0.03 | 0.00 | 80 | 1019.4 |
| 20260901104022 | 62 | 289 | 0.0 | 0.0 | 0.00 | 0.03 | 0.00 | 80 | 1019.3 |
| 20260901103525 | 62 | 288 | 0.0 | 0.0 | 0.00 | 0.03 | 0.00 | 81 | 1019.2 |
| 20260901103036 | 62 | 270 | 0.0 | 0.0 | 0.00 | 0.03 | 0.00 | 80 | 1019.3 |
| 20260901102519 | 62 | 289 | 0.0 | 0.0 | 0.00 | 0.03 | 0.00 | 80 | 1019.4 |
| 20260901102020 | 62 | 288 | 0.0 | 0.0 | 0.00 | 0.03 | 0.00 | 80 | 1019.4 |
| 20260901101517 | 62 | 270 | 0.0 | 1.0 | 0.00 | 0.03 | 0.00 | 81 | 1019.5 |
| 20260901101018 | 62 | 270 | 0.0 | 1.0 | 0.00 | 0.03 | 0.00 | 82 | 1019.5 |
| 20260901100516 | 62 | 270 | 0.0 | 1.0 | 0.00 | 0.03 | 0.00 | 81 | 1019.5 |
| 20260901100004 | 62 | 270 | 0.0 | 1.0 | 0.00 | 0.03 | 0.00 | 81 | 1019.5 |
| 20260901095504 | 63 | 270 | 0.0 | 1.0 | 0.00 | 0.03 | 0.00 | 82 | 1019.7 |
| 20260901095004 | 63 | 270 | 0.0 | 0.0 | 0.00 | 0.03 | 0.00 | 82 | 1019.8 |
| 20260901094508 | 63 | 270 | 0.0 | 0.0 | 0.00 | 0.03 | 0.00 | 81 | 1019.7 |
| 20260901094006 | 63 | 270 | 0.0 | 0.0 | 0.00 | 0.03 | 0.00 | 81 | 1019.8 |
| 20260901093509 | 63 | 270 | 0.0 | 0.0 | 0.00 | 0.03 | 0.00 | 80 | 1019.8 |
| 20260901093013 | 63 | 270 | 0.0 | 0.0 | 0.00 | 0.03 | 0.00 | 80 | 1019.8 |
| 20260901092508 | 63 | 270 | 0.0 | 0.0 | 0.00 | 0.03 | 0.00 | 80 | 1020.0 |
| 20260901092011 | 63 | 270 | 0.0 | 0.0 | 0.00 | 0.03 | 0.00 | 79 | 1020.1 |
| 20260901091519 | 63 | 270 | 0.0 | 0.0 | 0.00 | 0.03 | 0.00 | 80 | 1020.1 |
| 20260901091014 | 63 | 270 | 0.0 | 0.0 | 0.00 | 0.03 | 0.00 | 80 | 1020.1 |
| 20260901090512 | 64 | 270 | 0.0 | 0.0 | 0.00 | 0.03 | 0.00 | 79 | 1020.1 |
| 20260901090023 | 64 | 288 | 0.0 | 0.0 | 0.00 | 0.03 | 0.00 | 80 | 1020.0 |
| 20260901085515 | 64 | 287 | 0.0 | 0.0 | 0.00 | 0.03 | 0.00 | 79 | 1020.1 |
| 20260901085014 | 64 | 287 | 0.0 | 0.0 | 0.00 | 0.03 | 0.00 | 79 | 1020.2 |
| 20260901084505 | 64 | 287 | 0.0 | 0.0 | 0.00 | 0.03 | 0.00 | 79 | 1020.2 |
| 20260901084004 | 64 | 287 | 0.0 | 0.0 | 0.00 | 0.03 | 0.00 | 78 | 1020.3 |
| 20260901083505 | 64 | 287 | 0.0 | 0.0 | 0.00 | 0.03 | 0.00 | 78 | 1020.4 |
| 20260901083007 | 64 | 287 | 0.0 | 0.0 | 0.00 | 0.03 | 0.00 | 79 | 1020.3 |
| 20260901082508 | 64 | 287 | 0.0 | 0.0 | 0.00 | 0.03 | 0.00 | 79 | 1020.3 |
| 20260901082010 | 64 | 287 | 0.0 | 0.0 | 0.00 | 0.03 | 0.00 | 78 | 1020.5 |
| 20260901081513 | 64 | 285 | 0.0 | 1.0 | 0.00 | 0.03 | 0.00 | 78 | 1020.7 |
| 20260901081011 | 64 | 285 | 0.0 | 1.0 | 0.00 | 0.03 | 0.00 | 78 | 1020.8 |
| 20260901080512 | 64 | 285 | 0.0 | 1.0 | 0.00 | 0.03 | 0.00 | 77 | 1020.9 |
| 20260901080021 | 64 | 285 | 0.0 | 2.0 | 0.00 | 0.03 | 0.00 | 77 | 1020.9 |
| 20260901075512 | 64 | 285 | 0.0 | 2.0 | 0.00 | 0.03 | 0.00 | 77 | 1020.9 |
| 20260901075015 | 64 | 285 | 0.0 | 1.0 | 0.00 | 0.03 | 0.00 | 77 | 1021.0 |
| 20260901074530 | 64 | 285 | 0.0 | 1.0 | 0.00 | 0.03 | 0.00 | 77 | 1021.1 |
| 20260901074013 | 64 | 285 | 0.0 | 1.0 | 0.00 | 0.03 | 0.00 | 77 | 1021.2 |
| 20260901073504 | 64 | 285 | 0.0 | 1.0 | 0.00 | 0.03 | 0.00 | 78 | 1021.1 |
| 20260901073006 | 64 | 285 | 0.0 | 1.0 | 0.00 | 0.03 | 0.00 | 79 | 1021.2 |
| 20260901072507 | 64 | 285 | 0.0 | 2.0 | 0.00 | 0.03 | 0.00 | 79 | 1021.2 |
| 20260901072006 | 64 | 285 | 0.0 | 2.0 | 0.00 | 0.03 | 0.00 | 80 | 1021.1 |
| 20260901071521 | 64 | 285 | 0.0 | 0.0 | 0.00 | 0.03 | 0.00 | 81 | 1021.1 |
| 20260901071018 | 64 | 285 | 0.0 | 0.0 | 0.00 | 0.03 | 0.00 | 81 | 1021.1 |
| 20260901070508 | 64 | 285 | 0.0 | 1.0 | 0.00 | 0.03 | 0.00 | 81 | 1021.1 |
| 20260901070023 | 64 | 285 | 0.0 | 1.0 | 0.00 | 0.03 | 0.00 | 81 | 1020.9 |
| 20260901065510 | 64 | 285 | 0.0 | 2.0 | 0.00 | 0.03 | 0.00 | 82 | 1020.9 |
| 20260901065012 | 64 | 285 | 0.0 | 2.0 | 0.00 | 0.03 | 0.00 | 82 | 1020.9 |
| 20260901064527 | 63 | 286 | 0.0 | 0.0 | 0.00 | 0.03 | 0.00 | 83 | 1021.0 |
| 20260901064016 | 63 | 286 | 0.0 | 0.0 | 0.00 | 0.03 | 0.00 | 83 | 1020.9 |
| 20260901063514 | 63 | 286 | 0.0 | 0.0 | 0.00 | 0.03 | 0.00 | 84 | 1020.8 |
| 20260901063030 | 63 | 286 | 0.0 | 0.0 | 0.00 | 0.03 | 0.00 | 85 | 1020.6 |
| 20260901062514 | 63 | 286 | 0.0 | 0.0 | 0.00 | 0.03 | 0.00 | 85 | 1020.4 |
| 20260901062011 | 63 | 286 | 0.0 | 0.0 | 0.00 | 0.03 | 0.00 | 85 | 1020.4 |
| 20260901061509 | 63 | 287 | 0.0 | 0.0 | 0.00 | 0.03 | 0.00 | 85 | 1020.5 |
| 20260901061008 | 63 | 287 | 0.0 | 0.0 | 0.00 | 0.03 | 0.00 | 85 | 1020.5 |
| 20260901060508 | 63 | 287 | 0.0 | 0.0 | 0.00 | 0.03 | 0.00 | 86 | 1020.5 |
| 20260901060012 | 63 | 287 | 0.0 | 0.0 | 0.00 | 0.03 | 0.00 | 86 | 1020.5 |
| 20260901055511 | 63 | 287 | 0.0 | 0.0 | 0.00 | 0.03 | 0.03 | 86 | 1020.6 |
| 20260901055014 | 63 | 287 | 0.0 | 1.0 | 0.00 | 0.03 | 0.03 | 86 | 1020.6 |
| 20260901054523 | 63 | 287 | 0.0 | 1.0 | 0.00 | 0.03 | 0.03 | 86 | 1020.7 |
| 20260901054013 | 63 | 270 | 0.0 | 0.0 | 0.00 | 0.03 | 0.03 | 86 | 1020.7 |
| 20260901053515 | 63 | 270 | 0.0 | 0.0 | 0.00 | 0.03 | 0.03 | 85 | 1020.9 |
| 20260901053044 | 63 | 270 | 0.0 | 0.0 | 0.00 | 0.03 | 0.03 | 85 | 1020.9 |
| 20260901052514 | 63 | 270 | 0.0 | 0.0 | 0.00 | 0.03 | 0.03 | 84 | 1020.9 |
| 20260901052013 | 64 | 270 | 0.0 | 1.0 | 0.00 | 0.03 | 0.03 | 84 | 1020.9 |
| 20260901051534 | 64 | 270 | 0.0 | 1.0 | 0.00 | 0.03 | 0.03 | 83 | 1021.0 |
| 20260901051019 | 64 | 270 | 0.0 | 1.0 | 0.00 | 0.03 | 0.03 | 82 | 1021.0 |
| 20260901050507 | 64 | 270 | 0.0 | 1.0 | 0.01 | 0.03 | 0.03 | 82 | 1021.1 |
| 20260901050011 | 64 | 270 | 0.0 | 1.0 | 0.01 | 0.03 | 0.03 | 82 | 1020.9 |
| 20260901045508 | 64 | 270 | 0.0 | 2.0 | 0.01 | 0.03 | 0.03 | 83 | 1020.8 |
| 20260901045008 | 64 | 270 | 0.0 | 2.0 | 0.02 | 0.03 | 0.03 | 83 | 1020.8 |
| 20260901044516 | 64 | 285 | 0.0 | 3.0 | 0.03 | 0.03 | 0.03 | 83 | 1020.6 |
| 20260901044010 | 64 | 283 | 0.0 | 3.0 | 0.03 | 0.03 | 0.03 | 82 | 1020.7 |
| 20260901043513 | 64 | 285 | 0.0 | 3.0 | 0.03 | 0.03 | 0.03 | 82 | 1020.8 |
| 20260901043026 | 64 | 270 | 0.0 | 3.0 | 0.03 | 0.03 | 0.03 | 82 | 1020.6 |
| 20260901042515 | 65 | 283 | 0.0 | 1.0 | 0.03 | 0.03 | 0.03 | 82 | 1020.8 |
| 20260901042016 | 65 | 282 | 0.0 | 2.0 | 0.03 | 0.03 | 0.03 | 80 | 1021.3 |
| 20260901041533 | 65 | 282 | 0.0 | 3.0 | 0.03 | 0.03 | 0.03 | 79 | 1021.7 |
| 20260901041015 | 66 | 285 | 1.0 | 3.0 | 0.03 | 0.03 | 0.03 | 77 | 1021.8 |
| 20260901040517 | 66 | 270 | 0.0 | 1.0 | 0.02 | 0.02 | 0.02 | 74 | 1022.1 |
| 20260901040041 | 66 | 270 | 0.0 | 4.0 | 0.02 | 0.02 | 0.02 | 74 | 1022.4 |
| 20260901035513 | 66 | 270 | 1.0 | 5.0 | 0.02 | 0.02 | 0.02 | 73 | 1022.7 |